STARLINK-32808, 62863

Orbit data source: Space-Track

STARLINK-32808, 62863 is a payload satellite owned by SpaceX/Seattle (US) in LEO that was launched on Sat, 01 Feb 2025 UTC via an FALCON 9 launch vehicle from the Air Force Western Test Range (AFWTR). Payload-class satellites include a variety of spacecraft equipped with specific instruments for various scientific and technological missions. These include communications satellites like Starlink; space stations such as the ISS; scientific satellites like the Hubble; Earth observation satellites from companies like Planet Labs, Umbra, and HawkEye 360; GPS; miniature CubeSats for education and research; and military/defense satellites.

Loading next visibility...
Identifier
62863, 2025-022K
Orbit
LEO
Last TLE update
1 day ago
Origin
Manufacturer
SpaceX/Seattle
Mission
Operational Commercial Communications
Bus & Motor
STARLINK V2M, Unknown motor
Mass
730 kg wet, ~700 kg dry
Launch date (UTC)
2025-02-01 (3 months ago)
Launch vehicle
FALCON 9
Launch site
Air Force Western Test Range (AFWTR)
Object type
Payload
Rocket body
Debris
Shape & HBR
Box + 2 Pan, 29 m
Radar Cross Section
33.884 m², Large (>1 m²)

Expand to show TLE details & history

TLE from 1 day ago
0 STARLINK-32808
1 62863U 25022K   25128.22487049  .00001439  00000-0  45967-4 0  9992
2 62863  53.1609 112.6201 0001515  71.7564 288.3605 15.39611286 15073
Epoch: 2025-05-08T05:23Z
Definitive object data (Epoch: 2025-05-08T05:23:48.81Z)
Latitude
-0.00007°
Longitude
165.36825°
Altitude
447.836 km
Speed
7.645 km/s
True Right ascension
07h 30m 28s
True Declination
0° 00' 00"
Sunlit
Object was in daylight at TLE epoch
Visualization TLE readout
Latitude
53.28048°
Longitude
-112.72605°
Altitude
452.801 km
Speed
7.648 km/s
Apparent Right ascension
07h 59m 36s
Apparent Declination
19° 06' 21"
Sunlit
Object is in daylight
Visualization observer readout
Local Sidereal Time
16:24:57
Azimuth
308.725° NW
Elevation
-12.676°
Doppler factor
1
Orbital elements
Apogee altitude
448.549 km
Perigee altitude
446.481 km
Semi-major axis
6,825.652 km
Eccentricity
0.0001515
Inclination
53.1609°
RAAN
112.6201°
Arg. of periapsis
71.7564°
True anomaly
288.34402°
Mean anomaly
288.3605°
Eccentric anomaly
288.35226°
Mean motion
3.84881 °/min
BSTAR
0.000045967
Orbital period
93.54 mins
Loading maneuver chart data...
Loading SW <> Apogee altitude chart data...
Loading historical data...
Loading historical data...
Loading historical data...
Loading historical data...
Loading historical data...
Loading historical data...
Loading historical data...

STARLINK-32808 Visibility forecast

Observer location: undefined°, undefined°

Span
Click to sort rows by Start time (UTC) header in descending order
Start Az.
Max El. time (UTC)
Max El. Az.
Max El.
End time (UTC)
End Az.
6 mins2025-05-09 08:22:49.578Z309.766° NW2025-05-09 08:25:49.578Z232.279° WSW44.995°2025-05-09 08:28:49.578Z131.412° SE
5 mins2025-05-10 01:12:49.578Z224.668° SW2025-05-10 01:14:49.578Z133.515° SE44.75°2025-05-10 01:17:49.578Z51.814° ENE
4 mins2025-05-10 07:45:49.578Z325.489° NNW2025-05-10 07:47:49.578Z81.394° E39.525°2025-05-10 07:49:49.578Z117.005° SE
|